Year,Month,Day,Hour,Minute,Value (Times are PST for temperature in C)
2008,08,31,00,00,10.70
2008,08,31,00,01,10.70
2008,08,31,00,02,10.70
2008,08,31,00,03,10.70
2008,08,31,00,04,10.60
2008,08,31,00,05,10.60
2008,08,31,00,06,10.60
2008,08,31,00,07,10.50
2008,08,31,00,08,10.50
2008,08,31,00,09,10.40
2008,08,31,00,10,10.40
2008,08,31,00,11,10.40
2008,08,31,00,12,10.30
2008,08,31,00,13,10.30
2008,08,31,00,14,10.30
2008,08,31,00,15,10.30
2008,08,31,00,16,10.20
2008,08,31,00,17,10.20
2008,08,31,00,18,10.20
2008,08,31,00,19,10.20
2008,08,31,00,20,10.20
2008,08,31,00,21,10.20
2008,08,31,00,22,10.10
2008,08,31,00,23,10.10
2008,08,31,00,24,10.10
2008,08,31,00,25,10.10
2008,08,31,00,26,10.10
2008,08,31,00,27,10.10
2008,08,31,00,28,10.10
2008,08,31,00,29,10.10
2008,08,31,00,30,10.10
2008,08,31,00,31,10.10
2008,08,31,00,32,10.10
2008,08,31,00,33,10.10
2008,08,31,00,34,10.10
2008,08,31,00,35,10.10
2008,08,31,00,36,10.00
2008,08,31,00,37,10.00
2008,08,31,00,38,10.00
2008,08,31,00,39,10.00
2008,08,31,00,40,9.90
2008,08,31,00,41,9.90
2008,08,31,00,42,9.90
2008,08,31,00,43,9.90
2008,08,31,00,44,9.90
2008,08,31,00,45,9.90
2008,08,31,00,46,9.90
2008,08,31,00,47,9.80
2008,08,31,00,48,9.80
2008,08,31,00,49,9.80
2008,08,31,00,50,9.80
2008,08,31,00,51,9.80
2008,08,31,00,52,9.80
2008,08,31,00,53,9.70
2008,08,31,00,54,9.70
2008,08,31,00,55,9.70
2008,08,31,00,56,9.70
2008,08,31,00,57,9.70
2008,08,31,00,58,9.70
2008,08,31,00,59,9.70
2008,08,31,01,00,9.70
2008,08,31,01,01,9.70
2008,08,31,01,02,9.70
2008,08,31,01,03,9.70
2008,08,31,01,04,9.70
2008,08,31,01,05,9.70
2008,08,31,01,06,9.70
2008,08,31,01,07,9.70
2008,08,31,01,08,9.70
2008,08,31,01,09,9.70
2008,08,31,01,10,9.70
2008,08,31,01,11,9.70
2008,08,31,01,12,9.70
2008,08,31,01,13,9.70
2008,08,31,01,14,9.70
2008,08,31,01,15,9.70
2008,08,31,01,16,9.70
2008,08,31,01,17,9.70
2008,08,31,01,18,9.70
2008,08,31,01,19,9.70
2008,08,31,01,20,9.70
2008,08,31,01,21,9.70
2008,08,31,01,22,9.70
2008,08,31,01,23,9.70
2008,08,31,01,24,9.70
2008,08,31,01,25,9.70
2008,08,31,01,26,9.70
2008,08,31,01,27,9.70
2008,08,31,01,28,9.70
2008,08,31,01,29,9.70
2008,08,31,01,30,9.70
2008,08,31,01,31,9.70
2008,08,31,01,32,9.70
2008,08,31,01,33,9.70
2008,08,31,01,34,9.70
2008,08,31,01,35,9.60
2008,08,31,01,36,9.60
2008,08,31,01,37,9.60
2008,08,31,01,38,9.60
2008,08,31,01,39,9.60
2008,08,31,01,40,9.60
2008,08,31,01,41,9.60
2008,08,31,01,42,9.60
2008,08,31,01,43,9.60
2008,08,31,01,44,9.60
2008,08,31,01,45,9.50
2008,08,31,01,46,9.50
2008,08,31,01,47,9.50
2008,08,31,01,48,9.50
2008,08,31,01,49,9.50
2008,08,31,01,50,9.40
2008,08,31,01,51,9.40
2008,08,31,01,52,9.40
2008,08,31,01,53,9.40
2008,08,31,01,54,9.40
2008,08,31,01,55,9.40
2008,08,31,01,56,9.30
2008,08,31,01,57,9.30
2008,08,31,01,58,9.30
2008,08,31,01,59,9.30
2008,08,31,02,00,9.30
2008,08,31,02,01,9.20
2008,08,31,02,02,9.20
2008,08,31,02,03,9.20
2008,08,31,02,04,9.20
2008,08,31,02,05,9.10
2008,08,31,02,06,9.10
2008,08,31,02,07,9.10
2008,08,31,02,08,9.10
2008,08,31,02,09,9.10
2008,08,31,02,10,9.10
2008,08,31,02,11,9.10
2008,08,31,02,12,9.10
2008,08,31,02,13,9.10
2008,08,31,02,14,9.10
2008,08,31,02,15,9.10
2008,08,31,02,16,9.10
2008,08,31,02,17,9.10
2008,08,31,02,18,9.10
2008,08,31,02,19,9.00
2008,08,31,02,20,9.00
2008,08,31,02,21,9.00
2008,08,31,02,22,9.00
2008,08,31,02,23,9.00
2008,08,31,02,24,9.00
2008,08,31,02,25,9.00
2008,08,31,02,26,9.00
2008,08,31,02,27,9.00
2008,08,31,02,28,9.00
2008,08,31,02,29,9.00
2008,08,31,02,30,9.00
2008,08,31,02,31,9.00
2008,08,31,02,32,8.90
2008,08,31,02,33,8.90
2008,08,31,02,34,8.90
2008,08,31,02,35,8.90
2008,08,31,02,36,8.90
2008,08,31,02,37,8.80
2008,08,31,02,38,8.80
2008,08,31,02,39,8.80
2008,08,31,02,40,8.80
2008,08,31,02,41,8.80
2008,08,31,02,42,8.80
2008,08,31,02,43,8.80
2008,08,31,02,44,8.80
2008,08,31,02,45,8.80
2008,08,31,02,46,8.80
2008,08,31,02,47,8.80
2008,08,31,02,48,8.80
2008,08,31,02,49,8.80
2008,08,31,02,50,8.80
2008,08,31,02,51,8.80
2008,08,31,02,52,8.70
2008,08,31,02,53,8.70
2008,08,31,02,54,8.70
2008,08,31,02,55,8.60
2008,08,31,02,56,8.60
2008,08,31,02,57,8.60
2008,08,31,02,58,8.60
2008,08,31,02,59,8.50
2008,08,31,03,00,8.50
2008,08,31,03,01,8.50
2008,08,31,03,02,8.40
2008,08,31,03,03,8.40
2008,08,31,03,04,8.40
2008,08,31,03,05,8.40
2008,08,31,03,06,8.40
2008,08,31,03,07,8.30
2008,08,31,03,08,8.30
2008,08,31,03,09,8.30
2008,08,31,03,10,8.30
2008,08,31,03,11,8.20
2008,08,31,03,12,8.20
2008,08,31,03,13,8.20
2008,08,31,03,14,8.20
2008,08,31,03,15,8.20
2008,08,31,03,16,8.30
2008,08,31,03,17,8.30
2008,08,31,03,18,8.20
2008,08,31,03,19,8.20
2008,08,31,03,20,8.20
2008,08,31,03,21,8.20
2008,08,31,03,22,8.20
2008,08,31,03,23,8.20
2008,08,31,03,24,8.20
2008,08,31,03,25,8.20
2008,08,31,03,26,8.20
2008,08,31,03,27,8.20
2008,08,31,03,28,8.10
2008,08,31,03,29,8.10
2008,08,31,03,30,8.10
2008,08,31,03,31,8.10
2008,08,31,03,32,8.00
2008,08,31,03,33,8.00
2008,08,31,03,34,8.00
2008,08,31,03,35,7.90
2008,08,31,03,36,7.90
2008,08,31,03,37,7.90
2008,08,31,03,38,7.90
2008,08,31,03,39,7.80
2008,08,31,03,40,7.80
2008,08,31,03,41,7.80
2008,08,31,03,42,7.80
2008,08,31,03,43,7.80
2008,08,31,03,44,7.70
2008,08,31,03,45,7.70
2008,08,31,03,46,7.70
2008,08,31,03,47,7.70
2008,08,31,03,48,7.70
2008,08,31,03,49,7.60
2008,08,31,03,50,7.60
2008,08,31,03,51,7.60
2008,08,31,03,52,7.60
2008,08,31,03,53,7.60
2008,08,31,03,54,7.60
2008,08,31,03,55,7.50
2008,08,31,03,56,7.50
2008,08,31,03,57,7.40
2008,08,31,03,58,7.40
2008,08,31,03,59,7.30
2008,08,31,04,00,7.30
2008,08,31,04,01,7.20
2008,08,31,04,02,7.20
2008,08,31,04,03,7.20
2008,08,31,04,04,7.20
2008,08,31,04,05,7.20
2008,08,31,04,06,7.20
2008,08,31,04,07,7.20
2008,08,31,04,08,7.20
2008,08,31,04,09,7.20
2008,08,31,04,10,7.30
2008,08,31,04,11,7.30
2008,08,31,04,12,7.30
2008,08,31,04,13,7.30
2008,08,31,04,14,7.30
2008,08,31,04,15,7.30
2008,08,31,04,16,7.20
2008,08,31,04,17,7.20
2008,08,31,04,18,7.20
2008,08,31,04,19,7.20
2008,08,31,04,20,7.20
2008,08,31,04,21,7.20
2008,08,31,04,22,7.20
2008,08,31,04,23,7.20
2008,08,31,04,24,7.20
2008,08,31,04,25,7.20
2008,08,31,04,26,7.20
2008,08,31,04,27,7.20
2008,08,31,04,28,7.30
2008,08,31,04,29,7.20
2008,08,31,04,30,7.20
2008,08,31,04,31,7.20
2008,08,31,04,32,7.20
2008,08,31,04,33,7.20
2008,08,31,04,34,7.20
2008,08,31,04,35,7.20
2008,08,31,04,36,7.20
2008,08,31,04,37,7.20
2008,08,31,04,38,7.10
2008,08,31,04,39,7.10
2008,08,31,04,40,7.10
2008,08,31,04,41,7.00
2008,08,31,04,42,7.00
2008,08,31,04,43,7.00
2008,08,31,04,44,7.00
2008,08,31,04,45,7.00
2008,08,31,04,46,7.00
2008,08,31,04,47,7.00
2008,08,31,04,48,6.90
2008,08,31,04,49,6.90
2008,08,31,04,50,6.90
2008,08,31,04,51,6.90
2008,08,31,04,52,6.80
2008,08,31,04,53,6.80
2008,08,31,04,54,6.80
2008,08,31,04,55,6.80
2008,08,31,04,56,6.80
2008,08,31,04,57,6.80
2008,08,31,04,58,6.70
2008,08,31,04,59,6.70
2008,08,31,05,00,6.70
2008,08,31,05,01,6.70
2008,08,31,05,02,6.70
2008,08,31,05,03,6.70
2008,08,31,05,04,6.70
2008,08,31,05,05,6.80
2008,08,31,05,06,6.80
2008,08,31,05,07,6.80
2008,08,31,05,08,6.80
2008,08,31,05,09,6.80
2008,08,31,05,10,6.70
2008,08,31,05,11,6.70
2008,08,31,05,12,6.70
2008,08,31,05,13,6.70
2008,08,31,05,14,6.70
2008,08,31,05,15,6.70
2008,08,31,05,16,6.70
2008,08,31,05,17,6.80
2008,08,31,05,18,6.80
2008,08,31,05,19,6.80
2008,08,31,05,20,6.80
2008,08,31,05,21,6.80
2008,08,31,05,22,6.80
2008,08,31,05,23,6.80
2008,08,31,05,24,6.80
2008,08,31,05,25,6.80
2008,08,31,05,26,6.80
2008,08,31,05,27,6.80
2008,08,31,05,28,6.70
2008,08,31,05,29,6.70
2008,08,31,05,30,6.60
2008,08,31,05,31,6.60
2008,08,31,05,32,6.50
2008,08,31,05,33,6.40
2008,08,31,05,34,6.40
2008,08,31,05,35,6.30
2008,08,31,05,36,6.30
2008,08,31,05,37,6.30
2008,08,31,05,38,6.20
2008,08,31,05,39,6.20
2008,08,31,05,40,6.20
2008,08,31,05,41,6.20
2008,08,31,05,42,6.20
2008,08,31,05,43,6.20
2008,08,31,05,44,6.20
2008,08,31,05,45,6.20
2008,08,31,05,46,6.20
2008,08,31,05,47,6.20
2008,08,31,05,48,6.20
2008,08,31,05,49,6.20
2008,08,31,05,50,6.20
2008,08,31,05,51,6.20
2008,08,31,05,52,6.20
2008,08,31,05,53,6.20
2008,08,31,05,54,6.20
2008,08,31,05,55,6.20
2008,08,31,05,56,6.20
2008,08,31,05,57,6.20
2008,08,31,05,58,6.20
2008,08,31,05,59,6.20
2008,08,31,06,00,6.30
2008,08,31,06,01,6.30
2008,08,31,06,02,6.30
2008,08,31,06,03,6.30
2008,08,31,06,04,6.40
2008,08,31,06,05,6.40
2008,08,31,06,06,6.50
2008,08,31,06,07,6.50
2008,08,31,06,08,6.60
2008,08,31,06,09,6.60
2008,08,31,06,10,6.70
2008,08,31,06,11,6.70
2008,08,31,06,12,6.80
2008,08,31,06,13,6.80
2008,08,31,06,14,6.80
2008,08,31,06,15,6.80
2008,08,31,06,16,6.80
2008,08,31,06,17,6.70
2008,08,31,06,18,6.70
2008,08,31,06,19,6.60
2008,08,31,06,20,6.60
2008,08,31,06,21,6.60
2008,08,31,06,22,6.60
2008,08,31,06,23,6.60
2008,08,31,06,24,6.60
2008,08,31,06,25,6.60
2008,08,31,06,26,6.60
2008,08,31,06,27,6.50
2008,08,31,06,28,6.50
2008,08,31,06,29,6.50
2008,08,31,06,30,6.40
2008,08,31,06,31,6.40
2008,08,31,06,32,6.40
2008,08,31,06,33,6.40
2008,08,31,06,34,6.40
2008,08,31,06,35,6.40
2008,08,31,06,36,6.40
2008,08,31,06,37,6.40
2008,08,31,06,38,6.40
2008,08,31,06,39,6.40
2008,08,31,06,40,6.40
2008,08,31,06,41,6.40
2008,08,31,06,42,6.40
2008,08,31,06,43,6.50
2008,08,31,06,44,6.50
2008,08,31,06,45,6.50
2008,08,31,06,46,6.50
2008,08,31,06,47,6.50
2008,08,31,06,48,6.60
2008,08,31,06,49,6.60
2008,08,31,06,50,6.50
2008,08,31,06,51,6.50
2008,08,31,06,52,6.50
2008,08,31,06,53,6.50
2008,08,31,06,54,6.50
2008,08,31,06,55,6.50
2008,08,31,06,56,6.60
2008,08,31,06,57,6.60
2008,08,31,06,58,6.60
2008,08,31,06,59,6.60
2008,08,31,07,00,6.70
2008,08,31,07,01,6.70
2008,08,31,07,02,6.70
2008,08,31,07,03,6.70
2008,08,31,07,04,6.70
2008,08,31,07,05,6.70
2008,08,31,07,06,6.80
2008,08,31,07,07,6.80
2008,08,31,07,08,6.80
2008,08,31,07,09,6.80
2008,08,31,07,10,6.80
2008,08,31,07,11,6.80
2008,08,31,07,12,6.90
2008,08,31,07,13,6.90
2008,08,31,07,14,6.90
2008,08,31,07,15,7.00
2008,08,31,07,16,7.00
2008,08,31,07,17,7.00
2008,08,31,07,18,7.00
2008,08,31,07,19,7.10
2008,08,31,07,20,7.10
2008,08,31,07,21,7.10
2008,08,31,07,22,7.10
2008,08,31,07,23,7.10
2008,08,31,07,24,7.10
2008,08,31,07,25,7.10
2008,08,31,07,26,7.10
2008,08,31,07,27,7.10
2008,08,31,07,28,7.10
2008,08,31,07,29,7.10
2008,08,31,07,30,7.20
2008,08,31,07,31,7.20
2008,08,31,07,32,7.20
2008,08,31,07,33,7.20
2008,08,31,07,34,7.20
2008,08,31,07,35,7.30
2008,08,31,07,36,7.30
2008,08,31,07,37,7.30
2008,08,31,07,38,7.30
2008,08,31,07,39,7.30
2008,08,31,07,40,7.30
2008,08,31,07,41,7.30
2008,08,31,07,42,7.30
2008,08,31,07,43,7.30
2008,08,31,07,44,7.30
2008,08,31,07,45,7.30
2008,08,31,07,46,7.30
2008,08,31,07,47,7.40
2008,08,31,07,48,7.40
2008,08,31,07,49,7.40
2008,08,31,07,50,7.40
2008,08,31,07,51,7.40
2008,08,31,07,52,7.40
2008,08,31,07,53,7.50
2008,08,31,07,54,7.50
2008,08,31,07,55,7.50
2008,08,31,07,56,7.50
2008,08,31,07,57,7.60
2008,08,31,07,58,7.60
2008,08,31,07,59,7.60
2008,08,31,08,00,7.60
2008,08,31,08,01,7.60
2008,08,31,08,02,7.70
2008,08,31,08,03,7.70
2008,08,31,08,04,7.70
2008,08,31,08,05,7.70
2008,08,31,08,06,7.80
2008,08,31,08,07,7.80
2008,08,31,08,08,7.90
2008,08,31,08,09,7.90
2008,08,31,08,10,7.90
2008,08,31,08,11,8.00
2008,08,31,08,12,8.10
2008,08,31,08,13,8.10
2008,08,31,08,14,8.10
2008,08,31,08,15,8.10
2008,08,31,08,16,8.20
2008,08,31,08,17,8.20
2008,08,31,08,18,8.20
2008,08,31,08,19,8.30
2008,08,31,08,20,8.30
2008,08,31,08,21,8.30
2008,08,31,08,22,8.40
2008,08,31,08,23,8.40
2008,08,31,08,24,8.50
2008,08,31,08,25,8.50
2008,08,31,08,26,8.60
2008,08,31,08,27,8.60
2008,08,31,08,28,8.60
2008,08,31,08,29,8.70
2008,08,31,08,30,8.70
2008,08,31,08,31,8.80
2008,08,31,08,32,8.80
2008,08,31,08,33,8.90
2008,08,31,08,34,8.90
2008,08,31,08,35,8.90
2008,08,31,08,36,9.10
2008,08,31,08,37,9.10
2008,08,31,08,38,9.20
2008,08,31,08,39,9.20
2008,08,31,08,40,9.30
2008,08,31,08,41,9.30
2008,08,31,08,42,9.40
2008,08,31,08,43,9.40
2008,08,31,08,44,9.50
2008,08,31,08,45,9.60
2008,08,31,08,46,9.60
2008,08,31,08,47,9.60
2008,08,31,08,48,9.70
2008,08,31,08,49,9.70
2008,08,31,08,50,9.80
2008,08,31,08,51,9.80
2008,08,31,08,52,9.80
2008,08,31,08,53,9.90
2008,08,31,08,54,9.90
2008,08,31,08,55,10.00
2008,08,31,08,56,10.10
2008,08,31,08,57,10.10
2008,08,31,08,58,10.20
2008,08,31,08,59,10.30
2008,08,31,09,00,10.30
2008,08,31,09,01,10.40
2008,08,31,09,02,10.50
2008,08,31,09,03,10.50
2008,08,31,09,04,10.60
2008,08,31,09,05,10.70
2008,08,31,09,06,10.70
2008,08,31,09,07,10.80
2008,08,31,09,08,10.80
2008,08,31,09,09,10.90
2008,08,31,09,10,10.90
2008,08,31,09,11,11.00
2008,08,31,09,12,11.10
2008,08,31,09,13,11.20
2008,08,31,09,14,11.30
2008,08,31,09,15,11.40
2008,08,31,09,16,11.50
2008,08,31,09,17,11.60
2008,08,31,09,18,11.70
2008,08,31,09,19,11.80
2008,08,31,09,20,11.80
2008,08,31,09,21,11.90
2008,08,31,09,22,12.00
2008,08,31,09,23,12.10
2008,08,31,09,24,12.20
2008,08,31,09,25,12.30
2008,08,31,09,26,12.30
2008,08,31,09,27,12.40
2008,08,31,09,28,12.40
2008,08,31,09,29,12.50
2008,08,31,09,30,12.50
2008,08,31,09,31,12.60
2008,08,31,09,32,12.60
2008,08,31,09,33,12.70
2008,08,31,09,34,12.70
2008,08,31,09,35,12.70
2008,08,31,09,36,12.80
2008,08,31,09,37,12.80
2008,08,31,09,38,12.80
2008,08,31,09,39,12.80
2008,08,31,09,40,12.90
2008,08,31,09,41,12.90
2008,08,31,09,42,12.90
2008,08,31,09,43,13.00
2008,08,31,09,44,13.00
2008,08,31,09,45,13.00
2008,08,31,09,46,13.00
2008,08,31,09,47,13.10
2008,08,31,09,48,13.10
2008,08,31,09,49,13.10
2008,08,31,09,50,13.10
2008,08,31,09,51,13.20
2008,08,31,09,52,13.20
2008,08,31,09,53,13.20
2008,08,31,09,54,13.20
2008,08,31,09,55,13.30
2008,08,31,09,56,13.30
2008,08,31,09,57,13.30
2008,08,31,09,58,13.30
2008,08,31,09,59,13.40
2008,08,31,10,00,13.40
2008,08,31,10,01,13.50
2008,08,31,10,02,13.50
2008,08,31,10,03,13.50
2008,08,31,10,04,13.60
2008,08,31,10,05,13.70
2008,08,31,10,06,13.80
2008,08,31,10,07,13.80
2008,08,31,10,08,13.90
2008,08,31,10,09,13.90
2008,08,31,10,10,14.00
2008,08,31,10,11,14.00
2008,08,31,10,12,14.10
2008,08,31,10,13,14.10
2008,08,31,10,14,14.20
2008,08,31,10,15,14.20
2008,08,31,10,16,14.30
2008,08,31,10,17,14.30
2008,08,31,10,18,14.40
2008,08,31,10,19,14.40
2008,08,31,10,20,14.50
2008,08,31,10,21,14.50
2008,08,31,10,22,14.50
2008,08,31,10,23,14.40
2008,08,31,10,24,14.40
2008,08,31,10,25,14.40
2008,08,31,10,26,14.40
2008,08,31,10,27,14.40
2008,08,31,10,28,14.50
2008,08,31,10,29,14.50
2008,08,31,10,30,14.50
2008,08,31,10,31,14.50
2008,08,31,10,32,14.50
2008,08,31,10,33,14.60
2008,08,31,10,34,14.60
2008,08,31,10,35,14.60
2008,08,31,10,36,14.70
2008,08,31,10,37,14.60
2008,08,31,10,38,14.70
2008,08,31,10,39,14.70
2008,08,31,10,40,14.70
2008,08,31,10,41,14.70
2008,08,31,10,42,14.80
2008,08,31,10,43,14.80
2008,08,31,10,44,14.80
2008,08,31,10,45,14.90
2008,08,31,10,46,14.90
2008,08,31,10,47,14.90
2008,08,31,10,48,15.00
2008,08,31,10,49,15.00
2008,08,31,10,50,15.00
2008,08,31,10,51,15.00
2008,08,31,10,52,15.00
2008,08,31,10,53,15.00
2008,08,31,10,54,15.00
2008,08,31,10,55,15.00
2008,08,31,10,56,15.00
2008,08,31,10,57,15.00
2008,08,31,10,58,15.00
2008,08,31,10,59,15.00
2008,08,31,11,00,15.00
2008,08,31,11,01,15.00
2008,08,31,11,02,15.00
2008,08,31,11,03,15.00
2008,08,31,11,04,15.00
2008,08,31,11,05,15.00
2008,08,31,11,06,15.00
2008,08,31,11,07,15.00
2008,08,31,11,08,15.00
2008,08,31,11,09,15.00
2008,08,31,11,10,15.00
2008,08,31,11,11,15.00
2008,08,31,11,12,15.00
2008,08,31,11,13,15.00
2008,08,31,11,14,15.20
2008,08,31,11,15,15.30
2008,08,31,11,16,15.40
2008,08,31,11,17,15.50
2008,08,31,11,18,15.60
2008,08,31,11,19,15.70
2008,08,31,11,20,15.70
2008,08,31,11,21,15.90
2008,08,31,11,22,15.90
2008,08,31,11,23,15.90
2008,08,31,11,24,15.80
2008,08,31,11,25,15.90
2008,08,31,11,26,15.90
2008,08,31,11,27,16.00
2008,08,31,11,28,16.10
2008,08,31,11,29,16.10
2008,08,31,11,30,16.10
2008,08,31,11,31,16.00
2008,08,31,11,32,16.00
2008,08,31,11,33,15.90
2008,08,31,11,34,15.80
2008,08,31,11,35,15.80
2008,08,31,11,36,15.90
2008,08,31,11,37,15.90
2008,08,31,11,38,15.90
2008,08,31,11,39,15.90
2008,08,31,11,40,15.90
2008,08,31,11,41,15.80
2008,08,31,11,42,15.90
2008,08,31,11,43,15.90
2008,08,31,11,44,16.00
2008,08,31,11,45,16.00
2008,08,31,11,46,16.00
2008,08,31,11,47,16.10
2008,08,31,11,48,16.10
2008,08,31,11,49,16.20
2008,08,31,11,50,16.20
2008,08,31,11,51,16.20
2008,08,31,11,52,16.20
2008,08,31,11,53,16.10
2008,08,31,11,54,16.10
2008,08,31,11,55,16.00
2008,08,31,11,56,15.90
2008,08,31,11,57,15.90
2008,08,31,11,58,15.90
2008,08,31,11,59,15.90
2008,08,31,12,00,15.80
2008,08,31,12,01,15.70
2008,08,31,12,02,15.60
2008,08,31,12,03,15.60
2008,08,31,12,04,15.60
2008,08,31,12,05,15.70
2008,08,31,12,06,15.70
2008,08,31,12,07,15.60
2008,08,31,12,08,15.60
2008,08,31,12,09,15.60
2008,08,31,12,10,15.50
2008,08,31,12,11,15.50
2008,08,31,12,12,15.40
2008,08,31,12,13,15.40
2008,08,31,12,14,15.50
2008,08,31,12,15,15.60
2008,08,31,12,16,15.60
2008,08,31,12,17,15.60
2008,08,31,12,18,15.60
2008,08,31,12,19,15.70
2008,08,31,12,20,15.70
2008,08,31,12,21,15.70
2008,08,31,12,22,15.60
2008,08,31,12,23,15.60
2008,08,31,12,24,15.70
2008,08,31,12,25,15.70
2008,08,31,12,26,15.80
2008,08,31,12,27,15.80
2008,08,31,12,28,15.90
2008,08,31,12,29,15.90
2008,08,31,12,30,15.90
2008,08,31,12,31,15.90
2008,08,31,12,32,15.80
2008,08,31,12,33,15.80
2008,08,31,12,34,15.80
2008,08,31,12,35,15.90
2008,08,31,12,36,15.90
2008,08,31,12,37,16.00
2008,08,31,12,38,16.10
2008,08,31,12,39,16.10
2008,08,31,12,40,16.20
2008,08,31,12,41,16.20
2008,08,31,12,42,16.20
2008,08,31,12,43,16.20
2008,08,31,12,44,16.20
2008,08,31,12,45,16.20
2008,08,31,12,46,16.10
2008,08,31,12,47,16.20
2008,08,31,12,48,16.20
2008,08,31,12,49,16.20
2008,08,31,12,50,16.20
2008,08,31,12,51,16.20
2008,08,31,12,52,16.20
2008,08,31,12,53,16.10
2008,08,31,12,54,16.00
2008,08,31,12,55,16.00
2008,08,31,12,56,16.00
2008,08,31,12,57,15.90
2008,08,31,12,58,15.80
2008,08,31,12,59,15.70
2008,08,31,13,00,15.60
2008,08,31,13,01,15.60
2008,08,31,13,02,15.60
2008,08,31,13,03,15.60
2008,08,31,13,04,15.60
2008,08,31,13,05,15.60
2008,08,31,13,06,15.60
2008,08,31,13,07,15.60
2008,08,31,13,08,15.70
2008,08,31,13,09,15.80
2008,08,31,13,10,15.90
2008,08,31,13,11,16.00
2008,08,31,13,12,16.10
2008,08,31,13,13,16.20
2008,08,31,13,14,16.30
2008,08,31,13,15,16.30
2008,08,31,13,16,16.30
2008,08,31,13,17,16.20
2008,08,31,13,18,16.10
2008,08,31,13,19,16.10
2008,08,31,13,20,16.10
2008,08,31,13,21,16.00
2008,08,31,13,22,16.00
2008,08,31,13,23,15.90
2008,08,31,13,24,15.90
2008,08,31,13,25,15.90
2008,08,31,13,26,15.90
2008,08,31,13,27,15.90
2008,08,31,13,28,15.90
2008,08,31,13,29,15.90
2008,08,31,13,30,15.80
2008,08,31,13,31,15.60
2008,08,31,13,32,15.60
2008,08,31,13,33,15.60
2008,08,31,13,34,15.60
2008,08,31,13,35,15.80
2008,08,31,13,36,16.00
2008,08,31,13,37,16.30
2008,08,31,13,38,16.50
2008,08,31,13,39,16.60
2008,08,31,13,40,16.70
2008,08,31,13,41,16.70
2008,08,31,13,42,16.70
2008,08,31,13,43,16.60
2008,08,31,13,44,16.40
2008,08,31,13,45,16.30
2008,08,31,13,46,16.40
2008,08,31,13,47,16.50
2008,08,31,13,48,16.60
2008,08,31,13,49,16.80
2008,08,31,13,50,16.80
2008,08,31,13,51,16.90
2008,08,31,13,52,17.00
2008,08,31,13,53,17.00
2008,08,31,13,54,16.90
2008,08,31,13,55,16.90
2008,08,31,13,56,16.90
2008,08,31,13,57,16.80
2008,08,31,13,58,16.80
2008,08,31,13,59,16.80
2008,08,31,14,00,16.90
2008,08,31,14,01,17.00
2008,08,31,14,02,17.10
2008,08,31,14,03,17.10
2008,08,31,14,04,17.10
2008,08,31,14,05,17.10
2008,08,31,14,06,17.00
2008,08,31,14,07,16.90
2008,08,31,14,08,16.90
2008,08,31,14,09,16.90
2008,08,31,14,10,16.80
2008,08,31,14,11,16.80
2008,08,31,14,12,16.80
2008,08,31,14,13,16.80
2008,08,31,14,14,16.80
2008,08,31,14,15,16.70
2008,08,31,14,16,16.60
2008,08,31,14,17,16.50
2008,08,31,14,18,16.60
2008,08,31,14,19,16.80
2008,08,31,14,20,17.00
2008,08,31,14,21,17.10
2008,08,31,14,22,17.20
2008,08,31,14,23,17.30
2008,08,31,14,24,17.30
2008,08,31,14,25,17.40
2008,08,31,14,26,17.40
2008,08,31,14,27,17.40
2008,08,31,14,28,17.30
2008,08,31,14,29,17.10
2008,08,31,14,30,17.00
2008,08,31,14,31,16.90
2008,08,31,14,32,17.00
2008,08,31,14,33,17.10
2008,08,31,14,34,16.90
2008,08,31,14,35,16.70
2008,08,31,14,36,16.60
2008,08,31,14,37,16.60
2008,08,31,14,38,16.60
2008,08,31,14,39,16.60
2008,08,31,14,40,16.70
2008,08,31,14,41,16.80
2008,08,31,14,42,16.80
2008,08,31,14,43,16.80
2008,08,31,14,44,17.00
2008,08,31,14,45,17.10
2008,08,31,14,46,17.10
2008,08,31,14,47,17.10
2008,08,31,14,48,17.10
2008,08,31,14,49,17.20
2008,08,31,14,50,17.20
2008,08,31,14,51,17.20
2008,08,31,14,52,17.20
2008,08,31,14,53,17.20
2008,08,31,14,54,17.20
2008,08,31,14,55,17.30
2008,08,31,14,56,17.40
2008,08,31,14,57,17.40
2008,08,31,14,58,17.50
2008,08,31,14,59,17.60
2008,08,31,15,00,17.70
2008,08,31,15,01,17.70
2008,08,31,15,02,17.70
2008,08,31,15,03,17.60
2008,08,31,15,04,17.50
2008,08,31,15,05,17.50
2008,08,31,15,06,17.40
2008,08,31,15,07,17.40
2008,08,31,15,08,17.40
2008,08,31,15,09,17.50
2008,08,31,15,10,17.50
2008,08,31,15,11,17.40
2008,08,31,15,12,17.40
2008,08,31,15,13,17.40
2008,08,31,15,14,17.40
2008,08,31,15,15,17.40
2008,08,31,15,16,17.30
2008,08,31,15,17,17.40
2008,08,31,15,18,17.60
2008,08,31,15,19,17.60
2008,08,31,15,20,17.80
2008,08,31,15,21,17.80
2008,08,31,15,22,17.80
2008,08,31,15,23,17.80
2008,08,31,15,24,17.80
2008,08,31,15,25,17.80
2008,08,31,15,26,17.70
2008,08,31,15,27,17.60
2008,08,31,15,28,17.60
2008,08,31,15,29,17.60
2008,08,31,15,30,17.40
2008,08,31,15,31,17.50
2008,08,31,15,32,17.50
2008,08,31,15,33,17.50
2008,08,31,15,34,17.60
2008,08,31,15,35,17.60
2008,08,31,15,36,17.60
2008,08,31,15,37,17.70
2008,08,31,15,38,17.80
2008,08,31,15,39,17.90
2008,08,31,15,40,17.90
2008,08,31,15,41,18.00
2008,08,31,15,42,18.10
2008,08,31,15,43,18.10
2008,08,31,15,44,18.00
2008,08,31,15,45,18.00
2008,08,31,15,46,18.10
2008,08,31,15,47,18.10
2008,08,31,15,48,18.10
2008,08,31,15,49,18.10
2008,08,31,15,50,18.20
2008,08,31,15,51,18.10
2008,08,31,15,52,17.90
2008,08,31,15,53,17.70
2008,08,31,15,54,17.60
2008,08,31,15,55,17.40
2008,08,31,15,56,17.30
2008,08,31,15,57,17.30
2008,08,31,15,58,17.30
2008,08,31,15,59,17.30
2008,08,31,16,00,17.30
2008,08,31,16,01,17.40
2008,08,31,16,02,17.60
2008,08,31,16,03,17.70
2008,08,31,16,04,17.80
2008,08,31,16,05,17.80
2008,08,31,16,06,17.80
2008,08,31,16,07,17.80
2008,08,31,16,08,17.80
2008,08,31,16,09,17.80
2008,08,31,16,10,17.80
2008,08,31,16,11,17.80
2008,08,31,16,12,17.80
2008,08,31,16,13,17.90
2008,08,31,16,14,18.00
2008,08,31,16,15,18.10
2008,08,31,16,16,18.00
2008,08,31,16,17,17.90
2008,08,31,16,18,17.80
2008,08,31,16,19,17.80
2008,08,31,16,20,17.70
2008,08,31,16,21,17.70
2008,08,31,16,22,17.70
2008,08,31,16,23,17.70
2008,08,31,16,24,17.80
2008,08,31,16,25,17.70
2008,08,31,16,26,17.60
2008,08,31,16,27,17.60
2008,08,31,16,28,17.60
2008,08,31,16,29,17.60
2008,08,31,16,30,17.70
2008,08,31,16,31,17.80
2008,08,31,16,32,17.80
2008,08,31,16,33,17.70
2008,08,31,16,34,17.70
2008,08,31,16,35,17.60
2008,08,31,16,36,17.70
2008,08,31,16,37,17.80
2008,08,31,16,38,17.80
2008,08,31,16,39,17.70
2008,08,31,16,40,17.70
2008,08,31,16,41,17.70
2008,08,31,16,42,17.80
2008,08,31,16,43,17.80
2008,08,31,16,44,17.90
2008,08,31,16,45,17.90
2008,08,31,16,46,17.80
2008,08,31,16,47,17.80
2008,08,31,16,48,17.80
2008,08,31,16,49,17.90
2008,08,31,16,50,17.90
2008,08,31,16,51,17.90
2008,08,31,16,52,17.90
2008,08,31,16,53,17.90
2008,08,31,16,54,17.90
2008,08,31,16,55,17.80
2008,08,31,16,56,17.70
2008,08,31,16,57,17.70
2008,08,31,16,58,17.70
2008,08,31,16,59,17.80
2008,08,31,17,00,17.80
2008,08,31,17,01,17.80
2008,08,31,17,02,17.80
2008,08,31,17,03,17.80
2008,08,31,17,04,17.70
2008,08,31,17,05,17.70
2008,08,31,17,06,17.70
2008,08,31,17,07,17.60
2008,08,31,17,08,17.50
2008,08,31,17,09,17.50
2008,08,31,17,10,17.40
2008,08,31,17,11,17.40
2008,08,31,17,12,17.30
2008,08,31,17,13,17.20
2008,08,31,17,14,17.20
2008,08,31,17,15,17.30
2008,08,31,17,16,17.30
2008,08,31,17,17,17.30
2008,08,31,17,18,17.20
2008,08,31,17,19,17.20
2008,08,31,17,20,17.20
2008,08,31,17,21,17.20
2008,08,31,17,22,17.20
2008,08,31,17,23,17.20
2008,08,31,17,24,17.30
2008,08,31,17,25,17.30
2008,08,31,17,26,17.20
2008,08,31,17,27,17.20
2008,08,31,17,28,17.10
2008,08,31,17,29,17.10
2008,08,31,17,30,17.00
2008,08,31,17,31,17.00
2008,08,31,17,32,17.00
2008,08,31,17,33,17.00
2008,08,31,17,34,17.10
2008,08,31,17,35,17.10
2008,08,31,17,36,17.10
2008,08,31,17,37,17.20
2008,08,31,17,38,17.30
2008,08,31,17,39,17.30
2008,08,31,17,40,17.40